Location: ????????
(38.4362°N, 22.8767°E)
Time: 09:41:40
(UTC+00:00)

AQUA - Pass Details

Date: 27 July 2024
Orbit: 688 x 690 km, 98.4° (Epoch: 10 July)

Event Time Altitude Azimuth Distance (km) Brightness Sun altitude
Rises 01:41:17 0° 2° (N) 3,067 7.8 -17.8°
Reaches altitude 10° 01:43:43 10° 352° (N) 2,147 6.8 -17.4°
Maximum altitude 01:47:50 31° 291° (WNW) 1,195 4.8 -16.8°
Enters shadow 01:49:22 25° 256° (WSW) 1,365 4.8 -16.6°
